Orbital elements of COSMOS 970 DEB
| Launched | 20 December 1977 |
| Flight ended | – |
| Launch site | Tyuratam Missile and Space Center, Kazakhstan (Also known as Baikonur Cosmodrome) |
| Owner | Commonwealth of Independent States (former USSR) |
| NORAD ID | 12860 |
| Date fetched |
Epoch osculation |
Inc. [°] |
Ecc. | RA asc node [hr] |
Arg Peri. [°] |
Mean anom [°] |
Mean motion [rev/day] |
Abs. mag |
| Date fetched |
Epoch osculation |
Inc. [°] |
Ecc. | RA asc node [hr] |
Arg Peri. [°] |
Mean anom [°] |
Mean motion [rev/day] |
Abs. mag |
| 2026 May 03 17:57 | 2026 Apr 30 09:48:50 | 65.8024 | 0.01303 | 8.2889 | 346.9728 | 82.8563 | 13.63480 | – |
| 2026 May 02 17:57 | 2026 Apr 30 09:48:50 | 65.8024 | 0.01303 | 8.2889 | 346.9728 | 82.8563 | 13.63480 | – |
| 2026 May 01 17:56 | 2026 Apr 30 09:48:50 | 65.8024 | 0.01303 | 8.2889 | 346.9728 | 82.8563 | 13.63480 | – |
| 2026 Apr 30 17:56 | 2026 Apr 30 09:48:50 | 65.8024 | 0.01303 | 8.2889 | 346.9728 | 82.8563 | 13.63480 | – |
| 2026 Apr 29 17:57 | 2026 Apr 24 04:08:40 | 65.8027 | 0.01298 | 9.2976 | 349.9007 | 82.8563 | 13.63480 | – |
| 2026 Apr 28 17:56 | 2026 Apr 24 04:08:40 | 65.8027 | 0.01298 | 9.2976 | 349.9007 | 82.8563 | 13.63480 | – |
| 2026 Apr 27 17:58 | 2026 Apr 24 04:08:40 | 65.8027 | 0.01298 | 9.2976 | 349.9007 | 82.8563 | 13.63480 | – |
| 2026 Apr 26 17:58 | 2026 Apr 24 04:08:40 | 65.8027 | 0.01298 | 9.2976 | 349.9007 | 82.8563 | 13.63480 | – |
| 2026 Apr 25 17:58 | 2026 Apr 24 04:08:40 | 65.8027 | 0.01298 | 9.2976 | 349.9007 | 82.8563 | 13.63480 | – |
| 2026 Apr 24 17:59 | 2026 Apr 24 04:08:40 | 65.8027 | 0.01298 | 9.2976 | 349.9007 | 82.8563 | 13.63480 | – |
| 2026 Apr 23 17:57 | 2026 Apr 19 11:44:22 | 65.8033 | 0.01294 | 10.0550 | 352.1205 | 82.8563 | 13.63480 | – |
| 2026 Apr 22 17:57 | 2026 Apr 19 11:44:22 | 65.8033 | 0.01294 | 10.0550 | 352.1205 | 82.8563 | 13.63480 | – |
| 2026 Apr 21 17:57 | 2026 Apr 19 11:44:22 | 65.8033 | 0.01294 | 10.0550 | 352.1205 | 82.8563 | 13.63480 | – |
| 2026 Apr 20 17:57 | 2026 Apr 19 11:44:22 | 65.8033 | 0.01294 | 10.0550 | 352.1205 | 82.8563 | 13.63480 | – |
| 2026 Apr 19 17:58 | 2026 Apr 19 11:44:22 | 65.8033 | 0.01294 | 10.0550 | 352.1205 | 82.8563 | 13.63480 | – |
| 2026 Apr 18 17:56 | 2026 Apr 13 05:50:16 | 65.8041 | 0.01288 | 11.0652 | 355.0968 | 82.8563 | 13.63480 | – |
| 2026 Apr 16 17:57 | 2026 Apr 13 05:50:16 | 65.8041 | 0.01288 | 11.0652 | 355.0968 | 82.8563 | 13.63480 | – |
| 2026 Apr 14 17:57 | 2026 Apr 13 05:50:16 | 65.8041 | 0.01288 | 11.0652 | 355.0968 | 82.8563 | 13.63480 | – |
| 2026 Apr 13 17:57 | 2026 Apr 13 05:50:16 | 65.8041 | 0.01288 | 11.0652 | 355.0968 | 82.8563 | 13.63480 | – |
| 2026 Apr 12 17:57 | 2026 Apr 08 15:21:58 | 65.8047 | 0.01284 | 11.8095 | 357.3134 | 82.8563 | 13.63480 | – |
| 2026 Apr 11 17:57 | 2026 Apr 08 15:21:58 | 65.8047 | 0.01284 | 11.8095 | 357.3134 | 82.8563 | 13.63480 | – |
| 2026 Apr 10 17:58 | 2026 Apr 08 15:21:58 | 65.8047 | 0.01284 | 11.8095 | 357.3134 | 82.8563 | 13.63480 | – |
| 2026 Apr 09 18:01 | 2026 Apr 08 15:21:58 | 65.8047 | 0.01284 | 11.8095 | 357.3134 | 82.8563 | 13.63480 | – |
| 2026 Apr 08 17:57 | 2026 Apr 08 15:21:58 | 65.8047 | 0.01284 | 11.8095 | 357.3134 | 82.8563 | 13.63480 | – |
| 2026 Apr 07 17:57 | 2026 Apr 02 05:35:40 | 65.8048 | 0.01279 | 12.8457 | 0.3932 | 82.8563 | 13.63480 | – |
| 2026 Apr 06 17:57 | 2026 Apr 02 05:35:40 | 65.8048 | 0.01279 | 12.8457 | 0.3932 | 82.8563 | 13.63480 | – |